East Hartford, CT

6:34 PM EST on February 27, 2017 (GMT -0500)
Hartford-brainard

Weather History for KHFD - May, 2013

Change the Weather History Date:

Wednesday, May 22, 2013

  Actual Average Record
Temperature  
Mean Temperature 66 °F -  
Max Temperature 77 °F 72 °F 91 °F (1941)
Min Temperature 55 °F 49 °F 37 °F (2002)
Cooling Degree Days 1    
Growing Degree Days 16 (Base 50)    
Moisture  
Dew Point 60 °F    
Average Humidity 85    
Maximum Humidity 94    
Minimum Humidity 69    
Precipitation  
Precipitation 0.09 in - - ()
Sea Level Pressure  
Sea Level Pressure 29.90 in    
Wind  
Wind Speed 6 mph (SSE)    
Max Wind Speed 12 mph    
Max Gust Speed -    
Visibility 9 miles    
Events Rain , Thunderstorm    
Averages and records for this station are not official NWS values.
T = Trace of Precipitation, MM = Missing Value Source: NWS Daily Summary

Daily Weather History Graph

Daily Weather History Graph

Search for Another Location

Airport or City:

Trip Planner

Search our weather history database for the weather conditions in past years. The results will help you decide how hot, cold, wet, or windy it might be!

Date:

Astronomy

May. 22, 2013 Rise Set
Actual Time 5:24 AM EDT 8:10 PM EDT
Civil Twilight 4:51 AM EDT 8:43 PM EDT
Nautical Twilight 4:11 AM EDT 9:24 PM EDT
Astronomical Twilight 3:24 AM EDT 10:11 PM EDT
Moon 5:27 PM EDT (5/22) 3:29 AM EDT (5/22)
Length of Visible Light 15h 51m
Length of Day
14h 46m
Waxing Gibbous, 91% of the Moon is Illuminated
May 22
Waxing Gibbous
May 25
Full
May 31
Last Quarter
Jun 8
New
Jun 16
First Quarter

Hourly Weather History & Observations

Time (EDT) Temp. Dew Point Humidity Pressure Visibility Wind Dir Wind Speed Gust Speed Precip Events Conditions
12:53 AM 60.1 °F 55.9 °F 86% 29.95 in 9.0 mi NNE 9.2 mph - N/A   Overcast
1:27 AM 57.2 °F 55.4 °F 94% 29.94 in 7.0 mi East 5.8 mph - N/A   Overcast
1:53 AM 57.0 °F 54.0 °F 89% 29.94 in 10.0 mi Calm Calm - N/A   Overcast
2:08 AM 57.2 °F 53.6 °F 88% 29.93 in 10.0 mi East 3.5 mph - N/A   Overcast
2:53 AM 57.0 °F 52.0 °F 83% 29.95 in 10.0 mi East 3.5 mph - N/A   Overcast
3:53 AM 55.0 °F 53.1 °F 93% 29.95 in 10.0 mi SE 5.8 mph - N/A   Overcast
4:06 AM 55.4 °F 53.6 °F 94% 29.93 in 10.0 mi South 6.9 mph - N/A   Overcast
4:53 AM 57.0 °F 53.1 °F 87% 29.94 in 10.0 mi Calm Calm - 0.00 in Rain Light Rain
5:10 AM 55.4 °F 53.6 °F 94% 29.91 in 4.0 mi SSE 6.9 mph - 0.04 in Rain , Thunderstorm Heavy Rain
5:53 AM 55.9 °F 54.0 °F 93% 29.92 in 10.0 mi SSW 3.5 mph - 0.09 in   Scattered Clouds
6:17 AM 55.4 °F 53.6 °F 94% 29.93 in 10.0 mi Calm Calm - N/A   Mostly Cloudy
6:42 AM 57.2 °F 53.6 °F 88% 29.94 in 10.0 mi Calm Calm - N/A   Overcast
6:53 AM 57.0 °F 54.0 °F 89% 29.94 in 10.0 mi Calm Calm - N/A   Overcast
7:53 AM 57.9 °F 55.9 °F 93% 29.93 in 10.0 mi SSE 6.9 mph - N/A   Overcast
8:53 AM 59.0 °F 57.0 °F 93% 29.93 in 10.0 mi South 8.1 mph - N/A   Overcast
9:53 AM 60.1 °F 57.9 °F 93% 29.93 in 7.0 mi SSW 5.8 mph - N/A   Overcast
10:53 AM 62.1 °F 59.0 °F 90% 29.94 in 9.0 mi South 4.6 mph - N/A   Overcast
11:53 AM 64.0 °F 60.1 °F 87% 29.93 in 8.0 mi South 5.8 mph - N/A   Overcast
12:38 PM 64.4 °F 60.8 °F 88% 29.92 in 9.0 mi SE 4.6 mph - N/A   Overcast
12:53 PM 66.9 °F 62.1 °F 84% 29.92 in 10.0 mi South 5.8 mph - N/A   Overcast
1:10 PM 68.0 °F 62.6 °F 83% 29.91 in 10.0 mi Calm Calm - N/A   Overcast
1:53 PM 71.1 °F 64.0 °F 78% 29.89 in 10.0 mi SE 5.8 mph - N/A   Overcast
2:40 PM 73.4 °F 64.4 °F 73% 29.87 in 10.0 mi SSE 6.9 mph - N/A   Scattered Clouds
2:53 PM 75.9 °F 66.9 °F 74% 29.88 in 10.0 mi Variable 5.8 mph - N/A   Scattered Clouds
3:12 PM 77.0 °F 66.2 °F 69% 29.87 in 10.0 mi South 8.1 mph - N/A   Mostly Cloudy
3:26 PM 75.2 °F 66.2 °F 73% 29.87 in 10.0 mi Variable 4.6 mph - N/A   Scattered Clouds
3:53 PM 77.0 °F 66.9 °F 71% 29.86 in 10.0 mi South 8.1 mph - N/A   Scattered Clouds
4:53 PM 75.9 °F 68.0 °F 76% 29.85 in 10.0 mi South 10.4 mph - N/A   Clear
5:53 PM 75.0 °F 66.9 °F 76% 29.83 in 10.0 mi South 8.1 mph - N/A   Clear
6:45 PM 73.4 °F 66.2 °F 78% 29.84 in 10.0 mi South 11.5 mph - N/A   Mostly Cloudy
6:53 PM 73.9 °F 66.9 °F 79% 29.85 in 9.0 mi South 9.2 mph - N/A   Overcast
7:53 PM 72.0 °F 66.0 °F 81% 29.87 in 9.0 mi South 6.9 mph - N/A   Overcast
8:50 PM 71.6 °F 66.2 °F 83% 29.87 in 10.0 mi South 9.2 mph - N/A   Overcast
8:53 PM 71.1 °F 66.0 °F 84% 29.87 in 10.0 mi South 9.2 mph - N/A   Overcast
9:53 PM 69.1 °F 66.0 °F 90% 29.89 in 8.0 mi SSE 8.1 mph - N/A   Overcast
10:44 PM 68.0 °F 64.4 °F 88% 29.89 in 7.0 mi SSE 6.9 mph - N/A   Overcast
10:53 PM 68.0 °F 64.9 °F 90% 29.89 in 7.0 mi SSE 5.8 mph - N/A   Overcast
11:53 PM 68.0 °F 64.9 °F 90% 29.88 in 6.0 mi SSE 8.1 mph - N/A   Overcast